GFSNGP_250_rhum_102.txt.gz
RH
12 13 15 19 42 67 100 99 94 66 91 100 100 93 78 87 100 100 98 76 70 91 63 39 46 43 52 54 81 46 46 33 29 23 25 26 30 36 56 83 96 100 98 100
11 13 13 16 31 60 100 93 100 65 71 100 100 88 86 81 85 100 100 100 100 85 66 47 47 32 29 80 92 87 55 52 40 36 27 28 29 29 28 30 32 33 34 33
12 14 12 13 27 54 98 100 100 95 100 100 100 100 100 100 100 100 100 100 100 100 97 76 46 39 26 37 85 99 84 50 62 55 44 39 35 32 31 28 28 29 30 31
12 12 9 24 41 58 92 100 99 100 100 100 100 100 100 100 100 100 100 100 100 94 76 82 58 45 32 28 72 100 100 58 53 65 83 87 69 58 51 44 37 32 32 36
11 14 16 19 26 30 53 100 91 100 100 98 92 100 100 100 98 78 76 68 78 84 99 100 86 60 39 34 90 100 72 99 77 53 62 72 100 100 97 96 83 69 54 56
12 14 20 20 22 21 54 96 89 100 86 100 100 100 100 88 77 80 74 79 86 100 93 85 68 98 100 100 100 87 61 100 72 63 58 66 78 95 100 100 100 100 100 100
13 17 20 18 13 23 34 81 98 94 87 97 98 84 75 94 75 66 76 65 72 88 83 100 100 100 100 100 74 48 97 100 94 90 71 63 73 92 100 94 97 93 95 99
14 17 20 16 16 24 26 44 52 77 94 100 100 96 78 88 95 80 72 76 98 100 97 78 84 72 80 65 65 100 100 99 100 100 91 98 72 85 77 94 100 100 100 100
18 20 20 17 21 20 21 28 42 50 70 90 100 100 100 100 100 92 100 100 100 100 100 100 100 98 100 100 100 100 100 100 86 97 100 100 92 83 85 73 74 81 86 86
22 23 23 22 22 22 22 22 26 41 54 70 92 98 100 100 100 100 100 100 100 98 93 89 96 100 100 99 96 98 98 84 90 83 99 98 89 86 86 82 76 84 85 94
20 23 21 24 23 23 23 24 26 26 30 50 67 83 91 97 98 98 100 98 96 89 80 91 89 92 94 86 96 100 99 95 94 98 100 100 100 100 100 99 88 86 86 85
22 20 20 23 25 27 26 25 24 24 24 23 26 32 39 43 54 59 69 76 89 96 100 98 95 95 92 99 99 98 100 100 99 90 100 100 100 99 100 100 100 84 81 82
25 25 25 28 27 26 25 23 26 26 25 19 21 23 27 28 33 35 42 56 63 78 86 89 91 95 100 100 99 100 96 58 76 96 96 100 100 100 100 94 85 100 95 98
26 25 24 28 27 26 25 23 26 25 25 22 22 22 22 24 24 24 32 27 27 29 39 50 67 85 83 92 91 62 73 100 100 100 100 100 100 100 100 100 100 100 100 100
29 29 28 27 26 26 25 25 26 23 24 24 27 29 31 29 29 29 29 28 26 27 25 31 38 52 80 100 100 100 100 97 92 100 100 100 100 100 100 100 100 100 100 100
26 26 25 24 24 24 24 24 25 24 25 26 26 26 29 33 35 34 36 43 47 44 46 62 75 99 100 100 100 100 100 100 100 100 100 100 90 100 100 100 100 92 85 96
29 23 23 21 21 18 18 17 18 22 25 26 28 30 34 35 36 41 44 46 54 61 91 100 100 98 100 100 100 100 100 100 100 100 100 100 94 99 95 100 100 100 100 100
22 27 26 30 23 21 22 22 23 22 21 34 32 32 37 40 39 54 51 56 76 99 100 100 100 100 100 100 100 97 100 100 100 100 100 100 100 100 100 100 100 100 97 96
25 30 32 36 37 34 29 21 24 26 29 24 27 35 38 46 40 37 46 45 56 97 100 100 100 100 100 100 100 100 100 99 100 100 100 100 100 100 100 99 91 93 84 80
33 30 25 26 31 43 42 38 36 35 31 32 28 23 30 38 44 42 52 64 65 71 100 100 100 100 100 100 100 100 100 100 100 100 100 100 93 89 91 95 86 82 85 81
25 38 40 32 29 31 34 40 45 41 38 37 36 40 29 35 44 50 61 72 80 73 81 99 100 100 100 100 100 100 100 100 100 99 94 84 83 85 93 100 90 82 94 84
22 25 41 38 35 38 35 35 38 42 44 39 40 42 42 44 41 37 36 61 73 76 82 88 72 73 92 100 100 100 100 100 100 100 100 100 100 100 100 98 88 81 78 56
10 12 24 28 27 26 30 34 36 36 38 42 35 32 42 38 41 42 42 37 57 70 78 72 79 94 94 98 100 100 100 100 100 100 100 100 90 87 80 75 59 52 50 54
8 10 11 17 20 18 19 24 28 31 30 34 34 31 29 30 33 31 31 36 44 52 62 72 70 80 91 88 85 77 73 75 72 69 64 60 57 49 46 44 45 52 54 53
9 8 9 12 16 18 20 22 22 22 22 24 28 29 25 26 30 28 29 32 39 39 43 52 52 49 48 54 61 54 64 70 62 52 49 46 49 50 50 44 48 50 37 30
8 9 10 12 13 14 14 16 17 17 18 20 22 24 27 27 26 26 28 29 30 38 45 48 45 42 45 49 46 42 38 35 40 44 49 46 39 42 47 46 35 32 26 21
8 8 10 11 12 12 12 13 16 17 18 20 19 20 23 25 25 24 21 20 23 27 34 36 38 40 38 34 33 32 28 39 36 30 33 44 42 34 26 24 23 21 18 16

GFSNGP_250_rhum_105.txt.gz
RH
9 10 7 11 10 13 11 14 30 66 100 100 100 100 100 100 92 100 100 100 99 83 70 89 95 70 51 37 67 64 49 44 36 33 29 32 24 30 60 96 100 100 100 100
8 8 8 10 10 12 18 24 36 55 100 100 100 100 100 100 97 62 76 78 96 100 79 71 100 76 50 38 40 41 45 61 51 44 37 35 35 29 25 30 43 72 84 94
10 9 7 8 10 13 22 40 67 64 100 100 100 100 100 100 72 83 88 98 100 100 85 72 100 65 74 54 46 50 37 41 70 86 59 39 42 39 37 34 30 27 28 29
9 7 7 16 13 17 28 71 52 60 92 100 100 100 81 94 82 100 99 100 100 100 88 67 67 70 69 54 43 39 48 30 45 88 81 66 62 58 72 68 57 54 52 48
8 7 8 10 12 15 21 47 48 63 64 84 100 100 100 100 100 100 100 93 99 77 76 91 87 71 100 100 90 80 75 40 30 75 77 59 81 64 49 49 70 85 99 87
8 9 11 10 11 15 19 36 28 61 94 94 81 92 89 92 100 100 100 100 83 100 100 100 100 100 62 73 89 96 69 56 40 94 100 97 83 96 99 76 53 40 43 69
7 10 12 9 12 16 19 31 70 100 76 82 100 100 80 72 60 64 99 100 100 100 100 100 99 72 72 67 67 66 79 77 97 100 100 98 74 82 100 100 89 77 57 55
10 11 10 11 14 16 17 21 38 91 93 93 100 100 100 94 93 99 100 100 100 100 100 100 100 93 80 72 73 83 90 100 100 100 91 75 60 100 100 100 99 87 69 74
12 11 12 13 14 15 17 21 25 54 71 100 100 100 100 100 100 100 100 100 100 100 100 98 81 80 70 90 96 100 100 100 100 100 100 100 100 100 100 99 97 100 100 100
12 13 14 15 14 13 18 21 25 31 70 97 100 100 100 100 100 100 100 100 100 100 100 86 87 89 90 94 100 100 100 100 96 100 100 100 100 100 100 98 98 99 93 98
10 11 12 15 16 18 20 21 23 26 37 86 94 99 95 98 100 100 100 100 100 84 68 70 77 94 98 98 100 100 100 100 100 100 99 98 100 99 92 100 100 97 96 89
13 13 13 16 19 20 22 22 23 26 27 31 56 90 92 99 90 80 75 90 92 96 89 84 94 96 92 100 100 100 100 100 96 99 100 96 100 100 100 99 99 98 91 100
17 20 22 23 24 26 28 25 24 24 25 26 28 34 57 87 99 100 100 100 100 100 100 100 100 100 100 100 100 100 100 100 100 100 100 100 100 100 100 98 84 100 100 100
17 18 25 24 24 28 31 31 29 26 22 21 21 21 28 30 37 54 73 88 99 100 100 99 95 97 100 100 100 100 99 100 100 98 100 100 100 100 91 82 93 100 100 100
22 23 24 27 26 27 27 25 27 27 26 25 21 23 22 20 22 24 24 34 48 60 62 60 52 50 56 55 64 77 82 97 100 100 100 100 100 99 100 99 100 100 100 100
25 24 25 27 29 28 29 24 27 25 27 25 24 22 25 26 26 25 25 26 32 31 30 29 33 71 38 37 41 49 68 99 100 100 100 99 93 92 96 99 97 93 100 100
24 25 24 24 27 31 33 26 25 25 26 26 26 26 28 28 31 29 25 26 32 30 22 27 26 35 46 52 86 92 81 90 100 100 100 100 100 100 100 100 100 100 100 100
28 22 21 24 25 27 30 26 26 26 24 24 25 28 28 26 31 31 28 32 41 37 37 50 55 66 83 80 83 89 89 77 95 99 100 100 100 100 100 100 100 94 86 75
38 33 27 24 23 21 24 17 22 21 20 20 22 26 31 31 32 33 33 35 41 44 60 66 86 94 90 86 99 100 100 96 95 98 100 100 100 100 99 100 100 100 99 89
52 36 41 48 44 40 34 26 31 30 27 24 21 20 22 28 38 43 39 36 39 55 68 71 82 100 100 100 98 88 95 100 100 92 91 98 100 100 100 100 95 79 74 83
26 34 34 38 38 39 46 44 38 42 38 38 33 30 25 22 24 30 31 33 36 48 56 54 63 85 96 94 100 100 100 100 97 100 99 89 84 97 95 96 88 91 100 100
29 35 35 43 47 46 41 41 40 48 52 48 42 39 38 38 36 40 36 32 36 36 37 43 45 48 57 77 95 100 100 100 100 100 98 97 100 100 99 98 94 97 92 77
12 17 21 24 34 40 42 44 40 39 43 47 55 57 49 46 43 40 39 36 35 35 37 42 38 38 46 61 76 94 99 100 100 99 95 94 96 93 88 81 84 84 81 80
8 9 11 13 19 28 29 28 31 36 39 42 45 50 50 49 41 40 42 40 38 40 33 31 37 37 38 46 56 71 81 85 90 97 100 100 97 95 98 84 69 73 62 47
6 7 8 11 17 24 21 20 20 23 27 32 34 40 41 44 45 42 36 33 34 33 31 31 34 34 37 41 47 53 63 65 63 67 71 72 63 55 54 52 53 44 45 54
5 6 7 8 9 11 15 17 17 16 19 22 26 26 29 32 32 31 32 26 23 21 20 22 26 29 33 38 44 54 59 62 65 60 58 49 51 50 42 36 35 32 28 26
6 6 6 7 8 8 9 10 12 15 18 20 21 21 22 25 25 26 28 27 22 20 20 19 20 20 22 23 24 27 31 36 35 37 37 32 30 26 22 22 22 21 18 16

GFSNGP_250_rhum_108.txt.gz
RH
15 16 16 11 10 11 9 10 11 18 17 28 99 100 100 100 100 100 100 85 65 60 100 74 94 95 83 67 66 56 49 44 59 49 41 30 24 25 43 75 100 100 100 100
11 10 9 7 9 10 8 9 12 20 17 57 100 100 100 100 100 100 100 100 90 96 91 100 95 100 100 100 100 64 48 54 45 46 49 42 33 27 28 33 36 75 100 100
7 5 4 6 8 10 9 10 16 21 23 47 100 100 100 100 100 84 100 100 69 100 90 92 95 93 98 100 100 94 78 48 38 47 46 50 44 38 36 36 35 38 37 45
5 4 6 7 6 8 8 10 16 18 20 44 94 100 100 100 100 98 71 100 95 99 99 84 73 60 80 85 100 100 100 67 45 47 42 40 48 48 40 44 54 47 48 46
5 6 7 7 8 8 10 11 16 20 27 34 66 100 100 100 100 100 83 92 100 81 100 100 98 92 78 100 100 100 100 100 100 98 100 62 54 54 85 71 60 72 72 74
6 8 8 10 8 9 11 14 19 19 29 35 50 98 100 100 100 100 100 87 69 97 100 85 96 100 94 100 100 100 100 100 100 100 100 86 80 48 44 88 98 100 82 66
8 8 8 9 9 10 12 13 16 17 25 43 46 75 100 100 100 98 89 94 84 73 78 94 100 100 100 93 78 99 100 100 100 96 87 75 78 78 61 71 82 67 76 66
9 8 9 11 12 12 15 15 18 14 16 35 63 68 100 100 100 100 89 83 79 97 82 90 100 92 73 84 72 73 82 100 100 100 100 100 98 85 82 78 72 93 85 61
9 9 11 11 11 12 14 15 17 14 18 25 46 83 89 100 100 100 100 99 96 93 100 100 100 85 90 72 79 89 90 100 100 95 100 100 100 100 77 78 76 52 51 54
9 10 10 11 12 13 13 16 17 20 21 22 51 55 98 100 100 100 100 100 100 94 95 87 98 99 87 96 100 100 100 100 91 75 88 100 100 100 100 100 96 100 100 100
9 9 9 9 10 13 16 18 20 20 26 32 50 72 63 86 96 100 100 100 99 91 69 85 99 100 100 100 100 100 100 100 94 88 83 95 100 100 100 100 100 100 100 100
8 8 8 9 12 14 16 18 20 22 28 42 66 80 86 84 84 78 78 75 65 65 77 87 100 100 100 100 100 100 88 95 99 94 100 100 100 100 100 100 100 100 95 100
13 16 16 16 16 17 18 20 22 23 25 30 57 81 89 92 87 90 97 97 91 100 100 100 100 100 100 100 100 100 100 100 77 70 91 100 95 100 100 100 100 100 100 100
15 15 16 17 17 18 19 23 24 24 25 26 32 46 92 94 96 99 99 100 98 100 100 100 100 100 100 100 94 90 80 68 63 66 85 97 100 100 100 100 100 95 100 97
19 19 18 21 22 21 23 26 26 25 26 26 27 31 37 64 88 97 96 98 96 98 99 98 98 100 100 99 91 85 88 100 100 91 100 100 96 85 84 98 97 100 100 99
17 18 19 21 22 24 28 29 26 25 25 24 24 24 27 32 35 40 56 85 98 100 100 100 100 99 98 91 90 77 81 90 84 78 92 97 84 93 92 83 100 100 95 100
21 20 22 26 26 24 27 28 28 28 26 26 23 21 23 22 23 24 25 29 37 56 75 91 98 99 100 100 100 82 74 62 54 49 50 56 62 100 84 96 100 100 100 100
27 24 22 23 25 23 20 25 27 25 24 24 23 23 25 27 29 28 27 25 24 25 27 30 32 38 40 40 44 38 37 39 40 39 53 68 72 98 100 100 100 97 96 88
26 25 25 25 25 26 24 22 25 25 24 24 24 24 25 26 26 29 28 28 27 28 26 30 30 28 29 34 40 45 46 54 79 81 76 75 93 85 77 82 84 90 90 90
36 32 27 24 24 22 23 23 23 27 26 26 26 25 26 26 25 26 26 26 27 28 31 33 32 29 26 28 40 52 60 61 79 85 100 100 100 90 86 92 94 94 92 82
32 32 28 27 28 30 28 29 26 22 25 21 22 24 23 21 23 24 25 28 28 26 26 30 33 35 41 42 37 40 57 63 72 77 81 86 91 83 98 98 93 86 81 80
27 30 32 30 24 22 24 27 31 30 31 36 30 28 28 27 23 21 20 19 20 22 25 25 27 31 37 41 35 38 60 65 62 66 80 86 80 84 88 87 89 88 87 86
19 21 24 28 32 31 30 28 26 24 23 27 33 33 32 30 30 27 26 26 26 24 23 20 23 24 25 27 29 30 38 48 64 67 70 73 76 82 84 82 77 81 80 69
9 10 13 21 24 25 24 26 24 22 20 19 22 27 28 30 34 32 30 29 30 28 26 26 25 24 24 25 26 23 23 27 34 41 48 50 60 61 59 58 58 62 71 72
6 7 7 7 11 14 17 17 17 16 16 17 19 20 22 25 27 28 29 30 29 31 32 32 32 32 33 32 33 31 30 30 30 34 37 37 38 40 39 43 42 44 47 44
5 5 6 7 8 8 10 12 14 16 18 20 20 20 21 23 26 30 32 32 33 31 32 35 35 33 30 29 29 28 26 24 23 23 26 29 30 30 31 34 33 34 34 30
5 6 6 6 6 7 10 11 14 16 15 16 16 18 20 22 24 26 30 35 36 35 34 32 35 36 31 25 25 24 23 24 24 23 24 25 26 26 25 24 24 26 26 26

GFSNGP_250_rhum_114.txt.gz
RH
23 29 32 38 36 33 44 51 41 52 25 70 68 34 32 40 45 42 26 24 25 30 76 96 100 100 100 100 100 100 76 82 69 83 89 73 49 36 34 32 84 83 100 100
15 18 23 26 25 28 35 32 21 21 24 44 34 24 31 32 38 32 28 33 45 41 99 100 100 100 100 100 99 100 72 100 88 64 84 98 84 74 52 37 33 36 100 77
10 11 12 14 24 31 29 20 15 14 26 35 23 21 22 27 31 25 41 61 93 74 82 100 100 100 100 100 100 88 62 85 100 93 58 72 83 77 83 77 54 38 34 69
10 9 8 13 15 14 11 11 10 15 23 21 16 14 19 25 24 31 87 87 100 93 82 100 100 100 100 100 86 66 62 70 80 93 91 85 100 96 90 66 52 61 64 42
5 5 7 8 8 7 8 9 9 13 15 11 12 12 18 19 24 52 100 100 94 86 90 100 100 100 98 87 81 80 70 96 91 87 94 95 93 98 98 96 68 59 59 65
5 6 6 5 5 6 7 9 9 10 10 8 10 11 14 17 29 70 100 100 100 88 90 99 100 100 100 100 100 100 93 76 64 74 73 72 75 60 46 70 100 100 90 74
5 5 4 5 7 6 7 6 6 7 7 9 10 11 12 16 42 80 99 100 100 97 100 92 97 100 100 99 100 100 100 100 96 67 93 67 61 53 60 58 42 45 45 56
4 4 6 6 5 6 5 4 4 5 6 8 10 12 13 21 64 99 76 90 100 100 99 100 93 100 100 100 100 100 100 100 100 100 99 100 99 76 96 84 63 68 80 45
6 7 5 6 6 6 6 5 5 6 7 7 9 13 15 26 50 100 100 76 90 100 100 87 69 100 100 100 100 100 100 100 99 100 100 100 100 100 100 98 67 47 37 48
7 6 6 6 6 7 7 6 6 7 6 8 10 13 18 21 73 73 100 100 80 89 99 100 71 99 100 100 100 100 100 100 100 100 100 100 100 100 100 100 100 63 90 100
9 9 9 9 8 8 8 10 10 9 8 9 10 13 14 20 64 86 76 100 100 82 64 90 93 72 97 100 100 100 100 100 100 100 100 100 100 100 96 100 100 100 100 100
12 11 11 11 10 8 10 11 11 11 11 11 11 12 15 24 76 100 87 88 100 100 100 62 67 80 71 75 97 100 100 100 100 100 100 91 100 100 100 100 100 100 100 100
16 15 14 14 14 14 13 12 11 11 11 12 14 17 19 21 62 100 100 93 87 75 82 100 100 99 87 85 84 75 100 100 100 100 100 99 99 100 97 92 89 100 100 100
19 20 22 22 17 15 15 14 13 12 12 12 15 19 24 23 40 52 100 92 94 84 86 100 100 100 100 100 100 98 100 100 100 100 100 100 100 100 100 100 100 100 100 100
16 17 18 17 14 14 16 15 15 14 14 14 14 18 20 42 46 59 69 100 100 99 83 84 100 100 100 93 83 85 82 76 75 90 100 100 97 94 100 100 100 100 100 100
20 20 20 19 18 17 18 16 16 17 16 14 15 16 19 24 52 56 80 86 97 96 100 95 83 85 98 97 96 100 100 100 100 100 91 90 100 100 87 94 98 90 99 99
19 18 18 18 18 18 18 18 16 16 16 16 16 15 16 19 23 33 66 79 84 98 94 100 100 100 100 100 100 99 85 93 98 92 100 100 100 91 94 99 98 99 100 100
18 18 18 18 19 21 19 18 18 17 17 16 16 16 15 15 18 21 25 35 71 85 93 95 99 100 100 100 100 100 100 100 100 100 99 95 100 100 100 98 89 99 99 98
21 20 19 19 19 22 24 22 20 20 20 20 20 19 17 17 17 17 19 21 24 27 33 46 62 73 86 94 98 95 97 98 96 97 100 100 100 99 96 85 81 80 73 72
25 24 24 23 21 20 25 28 25 24 24 23 23 22 23 23 22 21 20 19 19 20 22 26 30 36 46 56 68 80 82 87 96 97 97 88 82 72 68 66 64 66 69 77
17 17 17 18 21 22 20 21 26 27 26 26 28 28 28 27 26 27 27 25 23 22 20 19 20 20 23 26 30 35 41 46 52 56 54 57 62 60 54 53 42 38 32 29
25 22 20 18 16 15 16 16 16 17 20 22 22 24 28 29 29 29 29 28 27 26 26 26 25 24 22 24 24 25 25 26 28 29 28 29 29 29 29 29 30 32 32 33
43 43 40 37 38 37 30 22 21 20 18 18 18 19 19 19 21 24 25 26 27 28 28 27 26 26 26 26 28 28 29 30 32 33 32 33 33 33 33 33 34 33 32 31
24 23 23 23 25 25 26 23 20 19 20 21 20 17 16 17 20 21 22 21 22 22 24 24 25 26 26 26 25 26 26 27 28 28 29 31 33 33 32 32 32 29 30 32
9 10 11 10 13 15 17 17 16 16 15 14 14 14 14 15 14 14 15 15 17 18 18 19 19 19 21 23 24 25 26 25 24 24 24 22 23 25 27 28 29 32 35 36
9 8 7 7 7 8 8 9 12 11 10 11 12 12 13 14 14 14 14 15 16 17 18 20 20 19 18 20 21 22 23 24 25 26 27 29 31 33 34 35 34 33 33 32
8 8 8 7 6 6 6 6 6 6 7 7 7 8 8 10 12 12 13 15 18 20 22 22 20 20 22 24 27 29 31 31 31 32 34 35 35 35 35 34 32 30 29 23

GFSNGP_250_rhum_117.txt.gz
RH
12 16 19 20 23 30 38 42 38 46 44 81 80 70 84 77 69 82 93 82 82 66 37 32 26 26 48 99 100 100 100 96 75 64 64 64 46 52 45 36 37 100 100 100
9 10 14 17 16 21 26 27 23 23 28 61 68 61 74 63 57 74 84 76 67 48 33 26 26 31 98 100 100 100 100 100 96 63 68 74 68 69 53 56 39 46 100 100
10 10 10 10 16 18 20 22 22 22 28 35 37 48 51 61 51 92 72 60 56 33 30 24 29 50 100 100 100 100 100 100 96 83 81 93 80 87 67 61 52 40 49 82
8 7 7 13 14 13 14 17 15 16 18 18 22 27 28 32 34 48 44 50 46 31 27 26 50 82 100 100 100 100 98 100 100 100 100 100 100 92 77 86 83 64 47 44
6 6 7 9 9 7 7 12 13 14 15 17 19 23 23 24 27 30 35 39 33 29 24 32 85 100 100 100 100 100 99 95 84 96 91 100 100 88 80 93 89 88 56 52
6 6 6 6 7 10 12 13 12 10 9 9 12 16 16 18 20 23 29 28 28 25 25 49 100 100 100 100 100 100 100 91 67 93 86 83 98 100 87 83 100 100 68 54
5 4 5 5 6 7 7 7 8 8 8 8 8 10 11 13 17 21 22 24 25 22 27 78 100 100 100 100 100 100 99 96 99 100 100 97 99 94 73 66 77 68 62 38
5 5 4 5 5 6 5 6 6 6 6 7 7 7 9 11 14 16 18 19 23 20 36 78 100 100 100 100 100 99 100 97 100 100 100 100 77 69 78 68 59 52 51 58
6 5 5 6 6 5 5 5 6 5 5 7 7 8 9 10 12 14 16 19 22 21 49 69 96 100 100 100 100 100 100 100 100 82 86 89 89 91 97 96 99 99 89 77
8 8 7 7 6 6 5 4 4 4 5 5 6 8 10 10 11 12 16 20 30 41 77 96 98 100 100 100 100 100 100 100 100 100 100 89 65 94 76 88 95 80 83 74
9 8 8 8 8 6 6 7 8 8 8 6 6 8 11 11 12 13 16 19 54 73 81 94 100 100 100 100 100 100 78 100 100 100 100 84 99 92 89 94 99 83 85 100
11 10 10 9 8 7 8 7 7 6 6 6 7 8 11 11 11 14 15 18 50 81 99 100 100 99 100 100 100 100 100 95 100 100 100 100 100 100 100 100 100 100 100 100
18 16 16 14 16 17 13 11 10 9 8 7 8 9 11 11 11 14 15 21 34 69 99 100 100 100 100 100 100 100 100 100 100 100 100 100 100 100 100 100 100 100 100 100
20 22 19 19 16 15 14 14 12 12 10 9 9 10 11 12 12 16 23 40 51 60 72 94 100 100 100 100 100 100 100 100 100 100 100 100 100 100 93 100 100 100 100 100
18 18 18 17 16 16 15 15 14 14 13 11 11 11 12 13 12 21 27 38 53 64 68 72 88 100 100 100 100 100 100 100 100 98 97 97 100 100 100 100 100 100 100 100
18 18 18 17 15 14 15 14 14 14 14 14 13 13 13 13 14 18 26 34 46 65 87 66 69 80 86 93 99 93 93 100 100 100 100 100 100 100 100 100 100 100 100 100
22 23 22 21 19 16 15 14 14 13 14 14 14 14 15 15 16 18 30 34 45 42 57 79 90 92 89 82 72 67 73 82 75 89 73 79 88 90 85 100 100 96 100 94
24 24 23 21 20 18 18 16 15 15 14 14 15 16 16 17 17 18 21 37 43 51 73 74 66 76 91 100 100 100 100 87 87 86 84 87 95 100 100 94 93 86 75 82
23 22 22 21 20 19 18 17 16 17 16 15 14 15 16 18 18 18 20 22 28 34 57 64 77 70 72 78 84 80 76 100 100 100 100 100 100 100 100 92 91 95 96 96
23 23 22 20 19 18 20 21 20 19 20 18 17 16 14 15 16 18 19 20 22 25 30 50 79 86 89 100 98 94 97 98 96 88 89 100 100 96 99 100 100 100 96 100
21 20 19 18 18 17 16 16 19 18 17 18 20 20 20 19 18 17 17 18 20 22 23 30 50 70 82 84 91 98 100 100 96 97 100 100 100 100 100 100 100 100 100 100
51 50 45 38 33 30 26 23 21 20 19 18 18 18 18 19 21 22 21 20 20 20 21 22 24 24 27 47 77 88 85 81 79 81 87 96 98 94 89 75 65 64 64 74
48 42 37 31 28 28 27 25 23 23 22 20 20 20 20 20 21 20 20 20 22 23 22 21 21 22 22 24 26 27 28 29 29 30 33 33 32 33 35 37 41 42 40 37
33 28 24 20 16 14 13 12 12 13 16 18 16 14 14 16 18 20 22 23 24 25 24 23 22 22 22 22 22 23 24 23 24 25 26 25 25 26 26 27 28 27 27 27
13 12 12 13 14 15 14 12 11 11 13 15 15 15 15 13 12 12 13 15 16 17 19 20 20 20 21 22 22 22 22 22 22 23 23 23 23 23 24 25 26 26 27 27
14 12 10 9 9 8 8 8 8 8 7 8 10 12 13 14 14 14 14 14 14 14 15 15 15 15 16 16 17 18 19 20 21 22 23 23 23 22 23 24 23 23 23 25
15 15 13 11 10 8 8 7 6 6 6 7 7 7 8 8 8 9 10 11 12 15 15 17 18 18 17 17 16 17 18 19 21 22 24 24 24 25 26 28 30 30 30 30